Find Starlink 5013

NORAD ID: 55492 Int'l Des: 2023-015 Owner: SPXS Country: US Constellation: starlink operational
LEOCIRCULAR

リアルタイム位置

3D地球を読み込み中...

Starlink 5013について

説明を読み込み中...

次回通過

Passes for default location (London). Set your location on the main map for personalized predictions.

高度履歴

Loading altitude history...

軌道要素

1 55492U 23015AV 26104.77721521 -.00000204 00000-0 21163-5 0 9996
2 55492 43.0002 135.9752 0001246 273.3661 86.7048 15.27577246176114
Epoch: Apr 14, 2026 • Age: 11 hours

現在のステータス

高度 482.2 km
速度 7.63 km/s
衛星直下点 11.03°N, 143.66°W
打ち上げ日 Feb 2, 2023
運用期間 3.1 years
タイプ internet

技術仕様

分類 Payload
質量 305.00 kg
乾燥質量 290.00 kg
総質量 305.00 kg
長さ 0.20 m
直径 2.80 m
スパン 9.00 m
形状 Box + pan
製造者 SPXS
バスタイプ Starlink
フェーズステータス In Orbit
所有者/国 SPXS/US

Most Searched